Weather in Makiivka

Ukraine / Donetsk Region     48°02′52″N   37°57′52″E
temp.,
°C
wind,
m/s
gust,
m/s
humid.,
%
clouds,
%
prec.,
mm/h
press.,
hPa
HPBL,
m
23 september, thu
thu2300:00+10ssw1261100 0.0 1014517
03:00+10s1161100 0.0 1013616
06:00+10se1264100 0.0 1013502
09:00+11e2363100 0.0 1013510
12:00+14sse235177 0.2 10121373
15:00+14wnw3355100 0.9 10121006
18:00+12n336587 0.2 1012511
21:00+11n3470100 0.3 1012407
24 september, fri
fri2400:00+11n2369100 0.0 1012359
03:00+10nnw34725 0.1 1012281
06:00+9nw23785 0.0 1012190
09:00+11w22615 0.0 1013651
12:00+14wsw454136 0.0 10111685
15:00+14sw5742100 0.0 10101774
18:00+14sw4843100 0.0 10091611
21:00+10s51073100 0.7 1009722
25 september, sat
sat2500:00+11ssw4986100 1.1 1007710
03:00+10w368762 1.2 1007324
06:00+11w378698 0.2 1007400
09:00+12wnw357265 0.6 1008562
12:00+13wnw6865100 0.8 10101064
15:00+13wnw466256 1.1 10111110
18:00+11wnw587085 0.1 1013780
21:00+10w38785 0.1 1015427
26 september, sun
sun2600:00+10w3777100 0.0 1016287
03:00+11w4976100 0.0 1016485
06:00+11wsw41073100 0.0 1015560
09:00+12wsw51273100 0.1 1014619
12:00+13w5118294 0.6 1014738
15:00+18wnw7125594 0.9 10121642
18:00+16nw7125827 0.3 10131364
21:00+12nw611670 0.3 1015906
27 september, mon
mon2700:00+11nw510740 0.0 1016772
03:00+9nw511750 0.0 1017638
06:00+8nw410821 0.0 1018451
09:00+10nnw477325 0.0 1019575
12:00+14nnw45525 0.0 10191121
15:00+15nnw4444100 0.1 10191900
18:00+14n355296 0.0 1019893
21:00+13n4761100 0.1 1020545